Time,TemperatureF,DewpointF,PressureIn,WindDirection,WindDirectionDegrees,WindSpeedMPH,WindSpeedGustMPH,Humidity,HourlyPrecipIn,Conditions,Clouds,dailyrainin,SoftwareType,DateUTC
2013-02-22 00:08:00,40.0,37.0,30.23,NNW,331,0.0,2.0,89,0.08,,,0.00,weatherlink.com 1.10,2013-02-22 05:08:00,
2013-02-22 00:24:00,39.9,37.0,30.23,NNE,20,4.0,4.0,89,0.09,,,0.03,weatherlink.com 1.10,2013-02-22 05:24:00,
2013-02-22 00:39:00,39.7,37.0,30.22,ENE,59,0.0,3.0,89,0.08,,,0.04,weatherlink.com 1.10,2013-02-22 05:39:00,
2013-02-22 00:54:00,39.4,37.0,30.24,NW,326,0.0,3.0,89,0.07,,,0.06,weatherlink.com 1.10,2013-02-22 05:54:00,
2013-02-22 01:09:00,39.4,37.0,30.27,NE,49,1.0,3.0,89,0.07,,,0.07,weatherlink.com 1.10,2013-02-22 06:09:00,
2013-02-22 01:24:00,39.2,37.0,30.29,WNW,302,4.0,5.0,90,0.06,,,0.09,weatherlink.com 1.10,2013-02-22 06:24:00,
2013-02-22 01:39:00,38.8,36.0,30.28,NE,38,0.0,5.0,90,0.07,,,0.11,weatherlink.com 1.10,2013-02-22 06:39:00,
2013-02-22 01:54:00,38.6,36.0,30.28,NE,51,0.0,1.0,90,0.06,,,0.12,weatherlink.com 1.10,2013-02-22 06:54:00,
2013-02-22 02:09:00,38.2,36.0,30.26,NE,49,2.0,2.0,91,0.07,,,0.14,weatherlink.com 1.10,2013-02-22 07:09:00,
2013-02-22 02:24:00,38.1,36.0,30.26,North,355,0.0,3.0,91,0.06,,,0.15,weatherlink.com 1.10,2013-02-22 07:24:00,
2013-02-22 02:39:00,38.0,36.0,30.25,ENE,75,1.0,2.0,91,0.05,,,0.16,weatherlink.com 1.10,2013-02-22 07:39:00,
2013-02-22 02:54:00,37.9,36.0,30.23,ESE,114,3.0,4.0,91,0.06,,,0.18,weatherlink.com 1.10,2013-02-22 07:54:00,
2013-02-22 03:09:00,38.0,35.0,30.25,ENE,58,0.0,4.0,90,0.06,,,0.20,weatherlink.com 1.10,2013-02-22 08:09:00,
2013-02-22 03:24:00,37.9,36.0,30.24,NE,56,0.0,3.0,91,0.06,,,0.21,weatherlink.com 1.10,2013-02-22 08:24:00,
2013-02-22 03:39:00,37.7,35.0,30.22,ENE,62,0.0,3.0,91,0.06,,,0.23,weatherlink.com 1.10,2013-02-22 08:39:00,
2013-02-22 03:54:00,37.6,35.0,30.21,NE,55,0.0,1.0,91,0.06,,,0.24,weatherlink.com 1.10,2013-02-22 08:54:00,
2013-02-22 04:09:00,37.5,35.0,30.21,ENE,72,1.0,3.0,91,0.05,,,0.25,weatherlink.com 1.10,2013-02-22 09:09:00,
2013-02-22 04:24:00,37.5,35.0,30.21,NE,39,1.0,2.0,91,0.05,,,0.26,weatherlink.com 1.10,2013-02-22 09:24:00,
2013-02-22 04:39:00,37.5,35.0,30.23,ENE,63,0.0,1.0,91,0.04,,,0.27,weatherlink.com 1.10,2013-02-22 09:39:00,
2013-02-22 04:54:00,37.6,35.0,30.25,WNW,294,0.0,2.0,91,0.03,,,0.27,weatherlink.com 1.10,2013-02-22 09:54:00,
2013-02-22 05:09:00,37.6,35.0,30.23,East,85,0.0,2.0,91,0.04,,,0.29,weatherlink.com 1.10,2013-02-22 10:09:00,
2013-02-22 05:24:00,37.6,35.0,30.23,ENE,75,0.0,0.0,91,0.03,,,0.29,weatherlink.com 1.10,2013-02-22 10:24:00,
2013-02-22 05:39:00,37.4,35.0,30.23,NE,49,1.0,4.0,91,0.03,,,0.30,weatherlink.com 1.10,2013-02-22 10:39:00,
2013-02-22 05:54:00,37.4,35.0,30.25,NW,311,0.0,2.0,91,0.04,,,0.31,weatherlink.com 1.10,2013-02-22 10:54:00,
2013-02-22 06:09:00,37.4,35.0,30.25,North,355,0.0,2.0,91,0.02,,,0.31,weatherlink.com 1.10,2013-02-22 11:09:00,
2013-02-22 06:24:00,37.4,35.0,30.25,NNE,33,1.0,3.0,91,0.02,,,0.31,weatherlink.com 1.10,2013-02-22 11:24:00,
2013-02-22 06:39:00,37.4,35.0,30.25,NE,44,0.0,1.0,92,0.01,,,0.31,weatherlink.com 1.10,2013-02-22 11:39:00,
2013-02-22 06:54:00,37.2,35.0,30.25,NNE,30,0.0,4.0,92,0.01,,,0.32,weatherlink.com 1.10,2013-02-22 11:54:00,
2013-02-22 07:09:00,37.0,35.0,30.24,NNW,340,3.0,5.0,92,0.01,,,0.32,weatherlink.com 1.10,2013-02-22 12:09:00,
2013-02-22 07:24:00,37.0,35.0,30.25,NNW,345,2.0,4.0,92,0.01,,,0.32,weatherlink.com 1.10,2013-02-22 12:24:00,
2013-02-22 07:39:00,37.0,35.0,30.23,NNE,15,1.0,4.0,92,0.01,,,0.32,weatherlink.com 1.10,2013-02-22 12:39:00,
2013-02-22 07:54:00,37.0,35.0,30.23,ENE,65,2.0,4.0,91,0.00,,,0.32,weatherlink.com 1.10,2013-02-22 12:54:00,
2013-02-22 08:09:00,37.1,35.0,30.24,NNW,331,2.0,4.0,91,0.00,,,0.32,weatherlink.com 1.10,2013-02-22 13:09:00,
2013-02-22 08:24:00,37.2,35.0,30.24,North,10,1.0,3.0,91,0.00,,,0.32,weatherlink.com 1.10,2013-02-22 13:24:00,
2013-02-22 08:39:00,37.4,35.0,30.24,NE,46,1.0,3.0,92,0.00,,,0.32,weatherlink.com 1.10,2013-02-22 13:39:00,
2013-02-22 08:54:00,37.5,35.0,30.24,NE,49,0.0,2.0,91,0.00,,,0.32,weatherlink.com 1.10,2013-02-22 13:54:00,
2013-02-22 09:09:00,37.7,35.0,30.25,ENE,65,0.0,2.0,91,0.00,,,0.32,weatherlink.com 1.10,2013-02-22 14:09:00,
2013-02-22 09:24:00,37.9,36.0,30.25,NW,323,2.0,3.0,91,0.00,,,0.32,weatherlink.com 1.10,2013-02-22 14:24:00,
2013-02-22 09:39:00,38.0,36.0,30.25,NNE,30,0.0,2.0,91,0.00,,,0.32,weatherlink.com 1.10,2013-02-22 14:39:00,
2013-02-22 09:54:00,38.2,36.0,30.25,NNW,334,0.0,3.0,91,0.00,,,0.32,weatherlink.com 1.10,2013-02-22 14:54:00,
2013-02-22 10:09:00,38.5,36.0,30.24,East,87,0.0,3.0,91,0.00,,,0.32,weatherlink.com 1.10,2013-02-22 15:09:00,
2013-02-22 10:24:00,38.7,36.0,30.25,NNE,13,2.0,4.0,90,0.00,,,0.32,weatherlink.com 1.10,2013-02-22 15:24:00,
2013-02-22 10:39:00,39.0,36.0,30.24,East,93,0.0,2.0,90,0.00,,,0.32,weatherlink.com 1.10,2013-02-22 15:39:00,
2013-02-22 10:54:00,39.1,36.0,30.24,ENE,63,1.0,5.0,88,0.00,,,0.32,weatherlink.com 1.10,2013-02-22 15:54:00,
2013-02-22 11:09:00,39.1,36.0,30.24,ENE,76,2.0,5.0,87,0.00,,,0.32,weatherlink.com 1.10,2013-02-22 16:09:00,
2013-02-22 11:24:00,39.1,35.0,30.24,East,83,3.0,5.0,86,0.00,,,0.32,weatherlink.com 1.10,2013-02-22 16:24:00,
2013-02-22 11:39:00,39.0,35.0,30.24,East,94,3.0,5.0,86,0.00,,,0.32,weatherlink.com 1.10,2013-02-22 16:39:00,
2013-02-22 11:54:00,38.9,35.0,30.23,ESE,112,3.0,5.0,87,0.00,,,0.32,weatherlink.com 1.10,2013-02-22 16:54:00,
2013-02-22 12:09:00,39.3,36.0,30.22,ENE,77,1.0,4.0,86,0.00,,,0.32,weatherlink.com 1.10,2013-02-22 17:09:00,
2013-02-22 12:24:00,39.1,35.0,30.20,ENE,65,1.0,6.0,86,0.00,,,0.32,weatherlink.com 1.10,2013-02-22 17:24:00,
2013-02-22 12:39:00,38.9,35.0,30.20,East,97,1.0,4.0,84,0.00,,,0.32,weatherlink.com 1.10,2013-02-22 17:39:00,
2013-02-22 12:55:00,38.5,35.0,30.19,NE,51,2.0,4.0,86,0.00,,,0.32,weatherlink.com 1.10,2013-02-22 17:55:00,
2013-02-22 13:10:00,38.1,35.0,30.18,ENE,68,2.0,3.0,89,0.00,,,0.32,weatherlink.com 1.10,2013-02-22 18:10:00,
2013-02-22 13:25:00,38.1,36.0,30.19,NNE,15,0.0,3.0,90,0.00,,,0.32,weatherlink.com 1.10,2013-02-22 18:25:00,
2013-02-22 13:40:00,38.0,35.0,30.19,East,90,0.0,2.0,90,0.00,,,0.32,weatherlink.com 1.10,2013-02-22 18:40:00,
2013-02-22 13:55:00,38.2,36.0,30.18,NE,51,1.0,4.0,91,0.00,,,0.32,weatherlink.com 1.10,2013-02-22 18:55:00,
2013-02-22 14:10:00,38.4,36.0,30.18,NE,43,3.0,3.0,90,0.00,,,0.32,weatherlink.com 1.10,2013-02-22 19:10:00,
2013-02-22 14:25:00,38.3,36.0,30.17,East,86,1.0,3.0,90,0.00,,,0.32,weatherlink.com 1.10,2013-02-22 19:25:00,
2013-02-22 14:40:00,38.5,36.0,30.17,ENE,57,0.0,2.0,91,0.00,,,0.32,weatherlink.com 1.10,2013-02-22 19:40:00,
2013-02-22 14:55:00,38.7,36.0,30.17,East,92,0.0,1.0,91,0.00,,,0.32,weatherlink.com 1.10,2013-02-22 19:55:00,
2013-02-22 15:10:00,38.6,36.0,30.17,NNE,28,0.0,2.0,91,0.00,,,0.32,weatherlink.com 1.10,2013-02-22 20:10:00,
2013-02-22 15:25:00,38.6,36.0,30.16,ESE,103,0.0,3.0,91,0.00,,,0.32,weatherlink.com 1.10,2013-02-22 20:25:00,
2013-02-22 15:40:00,38.6,36.0,30.17,ESE,104,0.0,3.0,91,0.00,,,0.32,weatherlink.com 1.10,2013-02-22 20:40:00,
2013-02-22 15:55:00,38.6,36.0,30.17,East,92,0.0,2.0,91,0.00,,,0.32,weatherlink.com 1.10,2013-02-22 20:55:00,
2013-02-22 16:10:00,38.5,36.0,30.16,East,97,1.0,3.0,91,0.00,,,0.32,weatherlink.com 1.10,2013-02-22 21:10:00,
2013-02-22 16:25:00,38.4,36.0,30.15,ENE,69,3.0,4.0,92,0.00,,,0.32,weatherlink.com 1.10,2013-02-22 21:25:00,
2013-02-22 16:40:00,38.3,36.0,30.16,East,90,1.0,5.0,92,0.00,,,0.32,weatherlink.com 1.10,2013-02-22 21:40:00,
2013-02-22 16:55:00,38.3,36.0,30.16,ESE,111,0.0,3.0,92,0.00,,,0.32,weatherlink.com 1.10,2013-02-22 21:55:00,
2013-02-22 17:10:00,38.3,36.0,30.15,ESE,111,1.0,4.0,92,0.00,,,0.32,weatherlink.com 1.10,2013-02-22 22:10:00,
2013-02-22 17:25:00,38.2,36.0,30.14,ENE,76,1.0,5.0,92,0.00,,,0.32,weatherlink.com 1.10,2013-02-22 22:25:00,
2013-02-22 17:40:00,38.2,36.0,30.14,SE,144,0.0,4.0,92,0.00,,,0.32,weatherlink.com 1.10,2013-02-22 22:40:00,
2013-02-22 17:55:00,38.1,36.0,30.14,ESE,120,2.0,6.0,92,0.00,,,0.32,weatherlink.com 1.10,2013-02-22 22:55:00,
2013-02-22 18:10:00,37.9,36.0,30.14,East,94,2.0,6.0,92,0.00,,,0.32,weatherlink.com 1.10,2013-02-22 23:10:00,
2013-02-22 18:25:00,37.8,36.0,30.15,East,84,1.0,6.0,92,0.01,,,0.33,weatherlink.com 1.10,2013-02-22 23:25:00,
2013-02-22 18:40:00,37.7,36.0,30.16,East,89,0.0,3.0,92,0.01,,,0.33,weatherlink.com 1.10,2013-02-22 23:40:00,
2013-02-22 18:55:00,37.6,36.0,30.14,ESE,105,3.0,5.0,92,0.01,,,0.33,weatherlink.com 1.10,2013-02-22 23:55:00,
2013-02-22 19:10:00,37.5,35.0,30.15,ENE,71,3.0,3.0,92,0.01,,,0.33,weatherlink.com 1.10,2013-02-23 00:10:00,
2013-02-22 19:25:00,37.4,36.0,30.15,East,86,1.0,4.0,93,0.00,,,0.33,weatherlink.com 1.10,2013-02-23 00:25:00,
2013-02-22 19:40:00,37.4,35.0,30.15,ESE,105,2.0,4.0,92,0.00,,,0.33,weatherlink.com 1.10,2013-02-23 00:40:00,
2013-02-22 19:55:00,37.2,35.0,30.15,ENE,76,3.0,4.0,92,0.00,,,0.33,weatherlink.com 1.10,2013-02-23 00:55:00,
2013-02-22 20:10:00,37.1,35.0,30.16,East,80,3.0,4.0,92,0.00,,,0.33,weatherlink.com 1.10,2013-02-23 01:10:00,
2013-02-22 20:25:00,37.0,35.0,30.15,ENE,75,3.0,4.0,92,0.00,,,0.33,weatherlink.com 1.10,2013-02-23 01:25:00,
2013-02-22 20:40:00,37.0,35.0,30.16,ENE,76,1.0,5.0,92,0.00,,,0.33,weatherlink.com 1.10,2013-02-23 01:40:00,
2013-02-22 20:55:00,36.9,35.0,30.16,East,101,1.0,3.0,92,0.00,,,0.33,weatherlink.com 1.10,2013-02-23 01:55:00,
2013-02-22 21:10:00,36.9,35.0,30.17,East,92,2.0,3.0,92,0.00,,,0.33,weatherlink.com 1.10,2013-02-23 02:10:00,
2013-02-22 21:25:00,36.8,35.0,30.16,East,84,1.0,5.0,93,0.00,,,0.33,weatherlink.com 1.10,2013-02-23 02:25:00,
2013-02-22 21:40:00,36.8,35.0,30.17,SE,137,0.0,3.0,93,0.00,,,0.33,weatherlink.com 1.10,2013-02-23 02:40:00,
2013-02-22 21:55:00,36.8,35.0,30.17,East,79,3.0,4.0,93,0.00,,,0.33,weatherlink.com 1.10,2013-02-23 02:55:00,
2013-02-22 22:10:00,36.7,35.0,30.15,East,82,2.0,5.0,93,0.00,,,0.33,weatherlink.com 1.10,2013-02-23 03:10:00,
2013-02-22 22:25:00,36.6,35.0,30.12,ESE,106,5.0,7.0,93,0.00,,,0.33,weatherlink.com 1.10,2013-02-23 03:25:00,
2013-02-22 22:40:00,36.5,35.0,30.13,ENE,62,1.0,3.0,93,0.00,,,0.33,weatherlink.com 1.10,2013-02-23 03:40:00,
2013-02-22 22:55:00,36.6,35.0,30.14,ENE,70,1.0,2.0,93,0.01,,,0.34,weatherlink.com 1.10,2013-02-23 03:55:00,
2013-02-22 23:10:00,36.6,35.0,30.14,East,79,1.0,3.0,93,0.01,,,0.34,weatherlink.com 1.10,2013-02-23 04:10:00,
2013-02-22 23:25:00,36.6,35.0,30.12,NE,43,3.0,4.0,93,0.01,,,0.34,weatherlink.com 1.10,2013-02-23 04:25:00,
2013-02-22 23:40:00,36.6,35.0,30.14,South,169,2.0,6.0,93,0.01,,,0.34,weatherlink.com 1.10,2013-02-23 04:40:00,
2013-02-22 23:55:00,36.7,35.0,30.16,SSW,196,4.0,5.0,93,0.01,,,0.35,weatherlink.com 1.10,2013-02-23 04:55:00,